Torna al catalogo

ARIANE 2 DEB

LostGTO
NORAD 33575·DEBRIS·🇫🇷 France

Lanciato Jan 27, 1989 da Guiana Space Centre

Loading…

TLE

ObsoletoSource: Space-Track

Epoca: Aug 18, 2015, 13:04 UTC

1 33575U 89006BT  15230.54451341 -.00000142  00000-0  00000+0 0  9991
2 33575   9.4474   3.7338 7067567 283.3342  14.1359  2.24013919 77996

Traccia ARIANE 2 DEB in tempo reale con AllMySat

Download on the App Store